Regional Weather Roundup
Issued by NWS Goodland, KS

Home | Current Version | Previous Version | Graphics & Text | Print | Product List | Glossary On
Versions: 1 2 3 4 5 6 7 8 9 10 11 12 13 14 15 16 17 18 19 20 21 22 23 24 25 26 27 28 29 30 31 32 33 34 35 36 37 38 39 40 41 42 43 44 45 46 47 48 49 50
000
ASUS43 KGLD 291208
RWRGLD

GOODLAND FORECAST AREA HOURLY WEATHER ROUNDUP
NATIONAL WEATHER SERVICE GOODLAND KS
600 AM MDT FRI MAY 29 2015

...OFFICIAL OBSERVATIONS...

CITY           SKY/WX    TMP DP  RH WIND       PRES   REMARKS
GOODLAND KS    CLOUDY    54  51  90 NW12      30.05R
HILL CITY KS   PTCLDY    53  51  93 W7        29.99R
IMPERIAL NEB   CLOUDY    56  51  84 NW6       30.05R
MCCOOK NEB     CLEAR     53  51  93 N3        30.00R
AKRON CO       PTCLDY    49  47  93 NW10      30.12R
BURLINGTON CO  CLOUDY    53  50  89 NW12      30.08R
LIMON CO       CLEAR     45  44  97 N6        30.14S
$$

...UNOFFICIAL OBSERVATIONS...

CITY           SKY/WX    TMP DP  RH WIND       PRES   REMARKS
LENORA KS        N/A     53  32  45 MISG        N/A
SHARON SPRINGS   N/A     50  48  93 MISG        N/A
KIT CARSON CO    N/A     54  49  83 MISG        N/A
$$



USA.gov is the U.S. government's official web portal to all federal, state and local government web resources and services.